Weather in Zuhres

Ukraine / Donetsk Region     48°00′41″N   38°15′54″E
temp.,
°C
wind,
m/s
gust,
m/s
humid.,
%
clouds,
%
prec.,
mm/h
press.,
hPa
HPBL,
m
17 may, mon
mon1700:00+19e6165340 0.0 1005342
03:00+17ese716535 0.0 1004353
06:00+15ese614594 0.0 1004337
09:00+20sse7115971 0.0 1005623
12:00+23s6859100 0.0 1006847
15:00+24sse675468 0.0 10061164
18:00+19s6976100 0.0 1007435
21:00+16sse4988100 0.1 1009358
18 may, tue
tue1800:00+14s259873 0.1 1009146
03:00+14ssw3699100 0.1 1008190
06:00+15s2498100 1.5 1009216
09:00+16sse3489100 4.6 1009476
12:00+20s567088 0.6 10081170
15:00+21ssw885588 0.8 10081644
18:00+19ssw786710 0.0 10091260
21:00+15s38839 0.0 1009305
19 may, wed
wed1900:00+12s389432 0.0 1009194
03:00+12sse379834 0.0 1008199
06:00+13sse379799 0.0 1008262
09:00+14s3592100 2.9 1009358
12:00+17s5774100 0.8 1009903
15:00+19ssw7956100 1.8 10091725
18:00+16ssw797157 0.1 10091047
21:00+13ssw6108990 0.3 1009655
20 may, thu
thu2000:00+13sw7118694 0.1 1010674
03:00+12wsw6128624 0.1 1011717
06:00+12sw61388100 0.0 1012780
09:00+16wsw8116638 0.0 10131187
12:00+20wsw794942 0.0 10151854
15:00+22wsw57421 0.0 10152046
18:00+22sw1246100 0.0 10151472
21:00+15sse368128 0.0 1017132
21 may, fri
fri2100:00+13e1181100 0.0 101713
03:00+12e22825 0.0 101719
06:00+13e310811 0.0 1017232
09:00+19ese7106370 0.0 1017708
12:00+23ese795378 0.0 10171159
15:00+24ese78502 0.0 10161231
18:00+23ese69620 0.0 1015933
21:00+17e413790 0.0 1016311